Location: Niagara
(43.2500°N, 79.0670°W)
Time: 16:57:29
(UTC-05:00)

Vanguard 1 - Visible Passes

Search period start: 12 December 2017 00:00
Search period end: 22 December 2017 00:00
Orbit: 650 x 3833 km, 34.2° (Epoch: 10 December)

Date Brightness Start Highest point End Pass type
(mag) Time Alt. Az. Time Alt. Az. Time Alt. Az.
13 Dec 14.8 05:45:03 10° SSE 05:55:36 15° SE 06:05:13 10° ESE visible
14 Dec 14.6 06:01:41 10° S 06:16:26 21° SE 06:29:20 10° E visible
15 Dec 14.5 06:19:55 10° S 06:37:18 28° SE 06:52:03 10° E visible
16 Dec 14.7 04:32:08 10° SE 04:35:17 10° SE 04:38:26 10° ESE visible
16 Dec 14.3 06:39:01 10° SSW 06:58:14 34° SE 07:14:05 10° E visible
17 Dec 14.5 04:44:18 10° SSE 04:55:53 16° SE 05:07:08 10° E visible
17 Dec 14.1 06:58:41 10° SSW 07:19:14 41° SSE 07:35:45 10° E visible
18 Dec 14.4 05:01:21 10° S 05:16:31 23° SE 05:31:04 10° E visible
19 Dec 14.2 05:19:47 10° S 05:37:13 29° SE 05:53:46 10° E visible
20 Dec 14.5 03:31:46 10° SE 03:35:40 11° SE 03:39:38 10° ESE visible
20 Dec 14.1 05:38:58 10° SSW 05:58:00 36° SE 06:15:52 10° E visible
21 Dec 14.3 03:44:46 10° SSE 03:56:02 17° SE 04:07:49 10° E visible
21 Dec 13.9 05:58:42 10° SSW 06:18:53 42° SSE 06:37:35 10° E visible
